Погода в Ранонге

Таиланд     9°58′27″N   98°39′09″E
темп.,
°C
ветер,
м/с
пор.,
м/с
влажн.,
%
обл.,
%
осадки,
мм/ч
давл.,
гПа
погр.,
м
17 мая, пн
пн1701:00+25ю119257 0.8 100836
04:00+24в0092100 0.0 100725
07:00+25в0188100 0.0 100848
10:00+32зсз01568 0.0 10091092
13:00+32з225991 1.4 10071282
16:00+28з1282100 5.2 100693
19:00+25зюз118875 7.4 100838
22:00+25ююз1191100 0.0 100941
18 мая, вт
вт1801:00+24ююв119197 0.0 100825
04:00+24ю119185 0.0 100725
07:00+25юв1188100 0.0 100950
10:00+31вюв0160100 0.0 1010914
13:00+32з2256100 0.0 10081530
16:00+28зюз2377100 2.8 1007583
19:00+25зюз129180 6.9 100884
22:00+24юз2494100 0.6 1010154
19 мая, ср
ср1901:00+24юз249789 0.9 1009186
04:00+24зюз2394100 2.0 1008115
07:00+25зюз1392100 2.0 1010117
10:00+27з2484100 0.1 1011607
13:00+27з248390 0.2 1009652
16:00+28з357755 0.5 1007898
19:00+25з238999 0.7 100890
22:00+24зюз2392100 0.0 1010105
20 мая, чт
чт2001:00+24юз249499 0.1 1009130
04:00+24юз249375 0.0 1008130
07:00+25юз258884 0.1 1009263
10:00+30зюз476766 0.1 10101201
13:00+31зюз486076 0.4 10091488
16:00+29зюз586988 0.4 10071212
19:00+26зюз388656 0.7 1009558
22:00+26з378995 0.4 1010483
21 мая, пт
пт2101:00+25зюз369099 1.3 1009339
04:00+24юз2393100 0.3 1008115
07:00+25юз249227 1.5 1009179
10:00+29зюз366953 1.5 1010941
13:00+29зюз4865100 2.3 10091157
16:00+27з4981100 2.3 1008957
19:00+24з31092100 4.3 1009717
22:00+24зюз31092100 1.3 1010881